Time,TemperatureF,DewpointF,PressureIn,WindDirection,WindDirectionDegrees,WindSpeedMPH,WindSpeedGustMPH,Humidity,HourlyPrecipIn,Conditions,Clouds,dailyrainin,SoftwareType,DateUTC
2013-06-01 00:08:00,59.5,58.0,29.70,SSE,157,0.0,-999.0,93,-99.99,,,0.00,weatherlink.com 1.10,2013-06-01 04:08:00,
2013-06-01 00:23:00,59.1,57.0,29.70,ENE,70,0.0,-999.0,93,-99.99,,,0.00,weatherlink.com 1.10,2013-06-01 04:23:00,
2013-06-01 00:38:00,59.2,58.0,29.70,ENE,77,4.0,-999.0,94,-99.99,,,0.00,weatherlink.com 1.10,2013-06-01 04:38:00,
2013-06-01 00:53:00,59.6,58.0,29.70,ESE,117,0.0,-999.0,94,-99.99,,,0.00,weatherlink.com 1.10,2013-06-01 04:53:00,
2013-06-01 01:09:00,59.4,58.0,29.70,SE,135,0.0,-999.0,94,-99.99,,,0.00,weatherlink.com 1.10,2013-06-01 05:09:00,
2013-06-01 01:24:00,58.9,57.0,29.70,SE,138,0.0,-999.0,93,-99.99,,,0.00,weatherlink.com 1.10,2013-06-01 05:24:00,
2013-06-01 01:39:00,58.5,57.0,29.70,SE,142,6.0,-999.0,94,-99.99,,,0.00,weatherlink.com 1.10,2013-06-01 05:39:00,
2013-06-01 01:54:00,58.1,56.0,29.70,SE,144,0.0,-999.0,94,-99.99,,,0.00,weatherlink.com 1.10,2013-06-01 05:54:00,
2013-06-01 02:09:00,58.0,56.0,29.71,South,182,0.0,-999.0,94,-99.99,,,0.04,weatherlink.com 1.10,2013-06-01 06:09:00,
2013-06-01 02:24:00,57.9,56.0,29.70,South,180,0.0,-999.0,94,-99.99,,,0.08,weatherlink.com 1.10,2013-06-01 06:24:00,
2013-06-01 02:39:00,57.6,57.0,29.71,South,175,0.0,-999.0,96,-99.99,,,0.08,weatherlink.com 1.10,2013-06-01 06:39:00,
2013-06-01 02:54:00,56.3,55.0,29.69,NE,40,0.0,-999.0,94,-99.99,,,0.08,weatherlink.com 1.10,2013-06-01 06:54:00,
2013-06-01 03:09:00,54.1,52.0,29.69,North,349,0.0,-999.0,93,-99.99,,,0.08,weatherlink.com 1.10,2013-06-01 07:09:00,
2013-06-01 03:24:00,52.8,51.0,29.68,North,349,0.0,-999.0,93,-99.99,,,0.08,weatherlink.com 1.10,2013-06-01 07:24:00,
2013-06-01 03:40:00,51.9,50.0,29.66,North,349,0.0,-999.0,94,-99.99,,,0.08,weatherlink.com 1.10,2013-06-01 07:40:00,
2013-06-01 03:55:00,51.2,50.0,29.66,North,349,0.0,-999.0,94,-99.99,,,0.08,weatherlink.com 1.10,2013-06-01 07:55:00,
2013-06-01 04:10:00,50.9,50.0,29.66,North,349,0.0,-999.0,95,-99.99,,,0.08,weatherlink.com 1.10,2013-06-01 08:10:00,
2013-06-01 04:25:00,50.6,49.0,29.66,North,349,0.0,-999.0,95,-99.99,,,0.08,weatherlink.com 1.10,2013-06-01 08:25:00,
2013-06-01 04:40:00,50.1,49.0,29.65,North,349,0.0,-999.0,95,-99.99,,,0.08,weatherlink.com 1.10,2013-06-01 08:40:00,
2013-06-01 04:55:00,50.1,49.0,29.64,North,349,0.0,-999.0,96,-99.99,,,0.08,weatherlink.com 1.10,2013-06-01 08:55:00,
2013-06-01 05:10:00,50.5,50.0,29.63,North,349,0.0,-999.0,97,-99.99,,,0.08,weatherlink.com 1.10,2013-06-01 09:10:00,
2013-06-01 05:25:00,50.7,50.0,29.64,North,349,0.0,-999.0,97,-99.99,,,0.08,weatherlink.com 1.10,2013-06-01 09:25:00,
2013-06-01 05:40:00,51.0,50.0,29.63,North,349,0.0,-999.0,97,-99.99,,,0.08,weatherlink.com 1.10,2013-06-01 09:40:00,
2013-06-01 05:55:00,51.4,51.0,29.63,North,349,0.0,-999.0,97,-99.99,,,0.08,weatherlink.com 1.10,2013-06-01 09:55:00,
2013-06-01 06:11:00,52.3,52.0,29.62,North,350,0.0,-999.0,98,-99.99,,,0.08,weatherlink.com 1.10,2013-06-01 10:11:00,
2013-06-01 06:26:00,53.0,53.0,29.61,ENE,69,1.0,-999.0,98,-99.99,,,0.08,weatherlink.com 1.10,2013-06-01 10:26:00,
2013-06-01 06:41:00,53.7,53.0,29.61,ENE,74,2.0,-999.0,98,-99.99,,,0.08,weatherlink.com 1.10,2013-06-01 10:41:00,
2013-06-01 06:56:00,54.5,54.0,29.62,East,96,0.0,-999.0,99,-99.99,,,0.08,weatherlink.com 1.10,2013-06-01 10:56:00,
2013-06-01 07:11:00,55.3,55.0,29.63,SSE,168,1.0,-999.0,99,-99.99,,,0.08,weatherlink.com 1.10,2013-06-01 11:11:00,
2013-06-01 07:26:00,56.1,56.0,29.63,South,171,0.0,-999.0,99,-99.99,,,0.08,weatherlink.com 1.10,2013-06-01 11:26:00,
2013-06-01 07:41:00,56.3,56.0,29.64,South,176,5.0,-999.0,99,-99.99,,,0.08,weatherlink.com 1.10,2013-06-01 11:41:00,
2013-06-01 07:56:00,56.3,56.0,29.65,SSW,192,5.0,-999.0,99,-99.99,,,0.08,weatherlink.com 1.10,2013-06-01 11:56:00,
2013-06-01 08:11:00,56.1,56.0,29.66,South,170,1.0,-999.0,99,-99.99,,,0.08,weatherlink.com 1.10,2013-06-01 12:11:00,
2013-06-01 08:26:00,56.0,56.0,29.65,South,176,4.0,-999.0,99,-99.99,,,0.08,weatherlink.com 1.10,2013-06-01 12:26:00,
2013-06-01 08:41:00,56.2,56.0,29.64,SSW,213,0.0,-999.0,99,-99.99,,,0.08,weatherlink.com 1.10,2013-06-01 12:41:00,
2013-06-01 08:56:00,57.2,57.0,29.64,SSW,213,0.0,-999.0,99,-99.99,,,0.08,weatherlink.com 1.10,2013-06-01 12:56:00,
2013-06-01 09:11:00,59.0,59.0,29.64,SSW,208,0.0,-999.0,99,-99.99,,,0.08,weatherlink.com 1.10,2013-06-01 13:11:00,
2013-06-01 09:27:00,60.4,60.0,29.64,SSW,204,0.0,-999.0,99,-99.99,,,0.08,weatherlink.com 1.10,2013-06-01 13:27:00,
2013-06-01 09:42:00,61.9,62.0,29.63,SSW,196,0.0,-999.0,99,-99.99,,,0.08,weatherlink.com 1.10,2013-06-01 13:42:00,
2013-06-01 09:57:00,63.5,63.0,29.63,SSW,197,0.0,-999.0,97,-99.99,,,0.08,weatherlink.com 1.10,2013-06-01 13:57:00,
2013-06-01 10:12:00,65.6,63.0,29.63,South,171,6.0,-999.0,91,-99.99,,,0.08,weatherlink.com 1.10,2013-06-01 14:12:00,
2013-06-01 10:27:00,67.1,63.0,29.64,South,191,0.0,-999.0,87,-99.99,,,0.08,weatherlink.com 1.10,2013-06-01 14:27:00,
2013-06-01 10:42:00,68.6,64.0,29.63,SSW,192,6.0,-999.0,86,-99.99,,,0.08,weatherlink.com 1.10,2013-06-01 14:42:00,
2013-06-01 10:57:00,69.8,64.0,29.63,South,182,5.0,-999.0,81,-99.99,,,0.08,weatherlink.com 1.10,2013-06-01 14:57:00,
2013-06-01 11:12:00,71.2,64.0,29.62,South,179,2.0,-999.0,78,-99.99,,,0.08,weatherlink.com 1.10,2013-06-01 15:12:00,
2013-06-01 11:28:00,72.3,65.0,29.62,South,175,2.0,-999.0,77,-99.99,,,0.08,weatherlink.com 1.10,2013-06-01 15:28:00,
2013-06-01 11:43:00,72.9,64.0,29.62,SSE,168,7.0,-999.0,74,-99.99,,,0.08,weatherlink.com 1.10,2013-06-01 15:43:00,
2013-06-01 11:58:00,73.4,62.0,29.62,SW,227,5.0,-999.0,68,-99.99,,,0.08,weatherlink.com 1.10,2013-06-01 15:58:00,
2013-06-01 12:13:00,73.7,62.0,29.62,WSW,241,6.0,-999.0,68,-99.99,,,0.08,weatherlink.com 1.10,2013-06-01 16:13:00,
2013-06-01 12:28:00,74.1,61.0,29.63,SW,225,5.0,-999.0,63,-99.99,,,0.08,weatherlink.com 1.10,2013-06-01 16:28:00,
2013-06-01 12:43:00,73.6,61.0,29.62,SW,232,1.0,-999.0,65,-99.99,,,0.08,weatherlink.com 1.10,2013-06-01 16:43:00,
2013-06-01 12:58:00,72.4,62.0,29.63,WSW,247,0.0,-999.0,69,-99.99,,,0.08,weatherlink.com 1.10,2013-06-01 16:58:00,
2013-06-01 13:13:00,73.6,62.0,29.63,WNW,298,0.0,-999.0,68,-99.99,,,0.08,weatherlink.com 1.10,2013-06-01 17:13:00,
2013-06-01 13:28:00,74.7,60.0,29.62,WNW,293,0.0,-999.0,61,-99.99,,,0.08,weatherlink.com 1.10,2013-06-01 17:28:00,
2013-06-01 13:43:00,75.5,60.0,29.61,South,182,2.0,-999.0,58,-99.99,,,0.08,weatherlink.com 1.10,2013-06-01 17:43:00,
2013-06-01 13:59:00,76.2,60.0,29.61,SSW,212,0.0,-999.0,57,-99.99,,,0.08,weatherlink.com 1.10,2013-06-01 17:59:00,
2013-06-01 14:14:00,77.0,59.0,29.59,WSW,256,0.0,-999.0,54,-99.99,,,0.08,weatherlink.com 1.10,2013-06-01 18:14:00,
2013-06-01 14:29:00,76.8,60.0,29.60,NE,35,0.0,-999.0,57,-99.99,,,0.08,weatherlink.com 1.10,2013-06-01 18:29:00,
2013-06-01 14:44:00,73.0,60.0,29.61,NE,51,2.0,-999.0,64,-99.99,,,0.08,weatherlink.com 1.10,2013-06-01 18:44:00,
2013-06-01 14:59:00,68.3,58.0,29.60,NNE,24,0.0,-999.0,70,-99.99,,,0.08,weatherlink.com 1.10,2013-06-01 18:59:00,
2013-06-01 15:14:00,66.1,57.0,29.60,NE,49,4.0,-999.0,73,-99.99,,,0.08,weatherlink.com 1.10,2013-06-01 19:14:00,
2013-06-01 15:29:00,64.3,55.0,29.61,NE,44,0.0,-999.0,72,-99.99,,,0.08,weatherlink.com 1.10,2013-06-01 19:29:00,
2013-06-01 15:44:00,62.9,55.0,29.62,North,5,0.0,-999.0,75,-99.99,,,0.08,weatherlink.com 1.10,2013-06-01 19:44:00,
2013-06-01 15:59:00,60.8,54.0,29.63,NNE,22,0.0,-999.0,78,-99.99,,,0.08,weatherlink.com 1.10,2013-06-01 19:59:00,
2013-06-01 16:14:00,60.3,54.0,29.64,North,355,0.0,-999.0,80,-99.99,,,0.08,weatherlink.com 1.10,2013-06-01 20:14:00,
2013-06-01 16:29:00,59.5,54.0,29.63,NNE,19,0.0,-999.0,82,-99.99,,,0.08,weatherlink.com 1.10,2013-06-01 20:29:00,
2013-06-01 16:44:00,58.2,54.0,29.65,North,349,3.0,-999.0,85,-99.99,,,0.09,weatherlink.com 1.10,2013-06-01 20:44:00,
2013-06-01 16:59:00,57.5,54.0,29.65,NNE,12,5.0,-999.0,87,-99.99,,,0.09,weatherlink.com 1.10,2013-06-01 20:59:00,
2013-06-01 17:15:00,57.4,54.0,29.64,North,5,6.0,-999.0,88,-99.99,,,0.09,weatherlink.com 1.10,2013-06-01 21:15:00,
2013-06-01 17:30:00,57.8,54.0,29.64,NNW,346,1.0,-999.0,88,-99.99,,,0.09,weatherlink.com 1.10,2013-06-01 21:30:00,
2013-06-01 17:45:00,58.4,55.0,29.65,NNE,12,5.0,-999.0,87,-99.99,,,0.09,weatherlink.com 1.10,2013-06-01 21:45:00,
2013-06-01 18:00:00,58.9,54.0,29.66,NNE,21,2.0,-999.0,85,-99.99,,,0.09,weatherlink.com 1.10,2013-06-01 22:00:00,
2013-06-01 18:15:00,58.4,54.0,29.66,North,355,3.0,-999.0,85,-99.99,,,0.09,weatherlink.com 1.10,2013-06-01 22:15:00,
2013-06-01 18:30:00,57.8,54.0,29.68,NNW,337,0.0,-999.0,88,-99.99,,,0.12,weatherlink.com 1.10,2013-06-01 22:30:00,
2013-06-01 18:45:00,56.8,54.0,29.67,North,349,3.0,-999.0,91,-99.99,,,0.24,weatherlink.com 1.10,2013-06-01 22:45:00,
2013-06-01 19:00:00,55.4,54.0,29.66,NW,319,6.0,-999.0,93,-99.99,,,0.30,weatherlink.com 1.10,2013-06-01 23:00:00,
2013-06-01 19:15:00,51.0,48.0,29.67,NW,318,7.0,-999.0,89,-99.99,,,0.32,weatherlink.com 1.10,2013-06-01 23:15:00,
2013-06-01 19:30:00,48.2,46.0,29.68,NW,305,9.0,-999.0,91,-99.99,,,0.38,weatherlink.com 1.10,2013-06-01 23:30:00,
2013-06-01 19:45:00,46.3,44.0,29.68,NW,315,11.0,-999.0,93,-99.99,,,0.42,weatherlink.com 1.10,2013-06-01 23:45:00,
2013-06-01 20:01:00,44.9,43.0,29.68,NNW,329,8.0,-999.0,94,-99.99,,,0.44,weatherlink.com 1.10,2013-06-02 00:01:00,
2013-06-01 20:16:00,44.4,43.0,29.69,NW,311,1.0,-999.0,95,-99.99,,,0.45,weatherlink.com 1.10,2013-06-02 00:16:00,
2013-06-01 20:31:00,43.5,42.0,29.68,NNW,333,5.0,-999.0,95,-99.99,,,0.45,weatherlink.com 1.10,2013-06-02 00:31:00,
2013-06-01 20:46:00,43.0,42.0,29.69,NNW,332,4.0,-999.0,95,-99.99,,,0.45,weatherlink.com 1.10,2013-06-02 00:46:00,
2013-06-01 21:01:00,42.4,41.0,29.70,NNW,327,5.0,-999.0,96,-99.99,,,0.45,weatherlink.com 1.10,2013-06-02 01:01:00,
2013-06-01 21:16:00,42.1,41.0,29.70,NW,319,6.0,-999.0,96,-99.99,,,0.45,weatherlink.com 1.10,2013-06-02 01:16:00,
2013-06-01 21:31:00,41.8,41.0,29.71,NNW,330,1.0,-999.0,97,-99.99,,,0.45,weatherlink.com 1.10,2013-06-02 01:31:00,
2013-06-01 21:46:00,41.7,41.0,29.71,WNW,296,4.0,-999.0,97,-99.99,,,0.45,weatherlink.com 1.10,2013-06-02 01:46:00,
2013-06-01 22:01:00,41.8,41.0,29.70,North,355,9.0,-999.0,97,-99.99,,,0.45,weatherlink.com 1.10,2013-06-02 02:01:00,
2013-06-01 22:16:00,42.0,41.0,29.71,NNW,327,6.0,-999.0,97,-99.99,,,0.46,weatherlink.com 1.10,2013-06-02 02:16:00,
2013-06-01 22:31:00,42.2,41.0,29.72,NW,306,8.0,-999.0,97,-99.99,,,0.46,weatherlink.com 1.10,2013-06-02 02:31:00,
2013-06-01 22:47:00,42.2,42.0,29.72,NNW,333,11.0,-999.0,98,-99.99,,,0.47,weatherlink.com 1.10,2013-06-02 02:47:00,
2013-06-01 23:02:00,42.0,41.0,29.73,NW,321,10.0,-999.0,97,-99.99,,,0.48,weatherlink.com 1.10,2013-06-02 03:02:00,
2013-06-01 23:17:00,41.8,41.0,29.73,NW,320,10.0,-999.0,97,-99.99,,,0.49,weatherlink.com 1.10,2013-06-02 03:17:00,
2013-06-01 23:32:00,41.6,41.0,29.73,NNW,336,16.0,-999.0,97,-99.99,,,0.50,weatherlink.com 1.10,2013-06-02 03:32:00,
2013-06-01 23:47:00,41.3,41.0,29.73,NW,315,11.0,-999.0,97,-99.99,,,0.52,weatherlink.com 1.10,2013-06-02 03:47:00,